User: anonymous   Login
Location: Boca do Mato
(22.9085°S, 43.2930°W)
Time: 13:12:55
(UTC+00:00)
Language:

Cosmos 1570 Rocket - Orbit

View from above orbital plane
View from above orbital plane
View from above satellite
View from above satellite

Ground track
Ground track

The orbit data is extracted from the following two-line orbital elements,

1 15032U 84056B   20274.45796590 -.00000029 +00000-0 -93232-6 0  9992
2 15032 074.0719 039.9975 0018362 259.9540 099.9541 14.34806756898935
Epoch (UTC): 30 September 2020 10:59:28
Eccentricity: 0.0018362
inclination: 74.0719°
perigee height: 762 km
apogee height: 789 km
right ascension of ascending node: 39.9975°
argument of perigee: 259.9540°
revolutions per day: 14.34806756
mean anomaly at epoch: 99.9541°
orbit number at epoch: 89893

The dashed part of the orbit path shows where the satellite is in the earth's shadow,  

DLR